Find Kosmos-1997

NORAD ID: 19788 Int'l Des: 1989-009 Owner: UNKS Country: SU operational
LEOCIRCULARPOLAR

Live Position

Loading 3D Globe...

About Kosmos-1997

Description loading...

Upcoming Passes

Passes for default location (London). Set your location on the main map for personalized predictions.

Altitude History

Loading altitude history...

Two-Line Element Set

1 19788U 89009D 26107.21925979 .00000005 00000-0 -29991-4 0 9999
2 19788 82.6226 39.5186 0010372 117.7257 41.2016 12.63687765714801
Epoch: Apr 17, 2026 • Age: 10 hours

Current Status

Altitude 1426.5 km
Velocity 7.15 km/s
Sub-Earth Point -43.04°S, 153.88°E
Launch Date Feb 10, 1989
Age 37.1 years
Type other

Technical Details

Classification Payload
Mass 225.00 kg
Dry Mass 225.00 kg
Total Mass 225.00 kg
Length 1.60 m
Diameter 0.80 m
Span 7.00 m
Shape Cyl + Ant
Manufacturer NPOPM
Bus Type Strela-3
Phase Status In Orbit
Owner/State UNKS/SU

Most Searched